Back to catalog

BREEZE-M DEB

LostHEO
NORAD 34228·DEBRIS·🇷🇺 Russia

Launched Feb 28, 2006 from Baikonur Cosmodrome

Loading…

Next Passes (next 24 hours)

TLE

StaleSource: Space-Track

Epoch: Dec 11, 2011, 22:50 UTC

1 34228U 06006AT  11345.95198586  .00078973  00000-0  27303-1 0  9996
2 34228 051.8771 203.5319 4569917 176.8325 188.6531 06.26437021 76743

Track BREEZE-M DEB in real time with AllMySat

Download on the App Store